Simultaneous Nadir Overpasses (SNOs) Predictions

Prediction of SNOs over PacNW region [( 10.00, 139.50) to ( 22.70, 165.60)] between AQUA and NPP Satellites:

Table of predicted SNOs over PacNW region for the next 30.0 days since TLE Epoch: 12/19/2015
Index Date (AQUA) Time (AQUA) AQUA Lat,Lon Date (NPP) Time (NPP) NPP Lat,Lon Distance(km) Time Diff (sec)
1 12/24/2015 02:42:17 22.67, 159.86 12/24/2015 02:38:48 22.50, 158.46 144.86 209
2 12/29/2015 15:09:55 22.62, 159.82 12/29/2015 15:13:17 23.22, 157.18 278.13 202
3 01/01/2016 03:30:39 18.64, 148.43 01/01/2016 03:28:16 18.28, 146.80 176.55 143
4 01/06/2016 15:59:21 22.60, 147.46 01/06/2016 16:02:49 27.11, 145.50 539.78 208
5 01/09/2016 02:42:17 22.67, 159.87 01/09/2016 02:38:48 23.18, 158.29 171.36 209
6 01/14/2016 15:09:50 22.62, 159.85 01/14/2016 15:13:04 23.20, 157.19 280.16 194




NCC Satellite Simultaneous Nadir Overpasses (SNOs) Prediction Service
